STARLINK-35959

Last updated on Mon Dec 15 2025 00:02:12 GMT+0000 (Coordinated Universal Time)

1 66827U 25280G 25348.25003472 -.01758771 00000+0 -13636-1 0 9998 2 66827 69.9945 194.5320 0003667 271.5731 38.4542 15.74580997 3144
UTC large
Height (km)
Speed (km/s)
/
Latitude / Longitude
Inclination (degrees)
Orbital Period (minutes)
Azimuth
Elevation
Range (km)
Doppler Factor

Next 0 passes for location: London (51.5072 / 0.1276)

Sorry there are no passes over London.